User: anonymous   Login
Location: Unspecified
(0.0000°N, 0.0000°E)
Time: 18:14:05
(UTC+00:00)
Language:

STARLINK-32712 - Orbit

View from above orbital plane
View from above orbital plane
View from above satellite
View from above satellite

Ground track
Ground track

The orbit is defined by the following mean orbital elements,

1 62433U          26145.54544795 +.00000000 +00000-0 +73484-3 0 00001
2 62433  53.1597 338.4351 0001139  82.7286 277.3844 15.30201941    05
Epoch (UTC): 25 May 2026 13:05:26
Eccentricity: 0.0001139
inclination: 53.1597°
perigee height: 474 km
apogee height: 476 km
right ascension of ascending node: 338.4351°
argument of perigee: 82.7286°
revolutions per day: 15.30201941
mean anomaly at epoch: 277.3844°

The dashed part of the orbit path shows where the satellite is in the earth's shadow,  

DLR